Terminal Aerodrome Forecast
Issued by NWS

Home | Current Version | Previous Version | Text Only | Print | Product List | Glossary On
Versions: 1 2 3 4 5 6 7 8 9 10 11 12 13 14 15 16 17 18 19
981
FTUS46 KLOX 031002 AAB
TAFSBP
TAF AMD
KSBP 031002Z 0310/0406 31006KT P6SM OVC005
     FM031700 29005KT P6SM BKN008
     FM032000 30012KT P6SM BKN250
     FM040500 VRB03KT P6SM BKN150=

USA.gov is the U.S. government's official web portal to all federal, state and local government web resources and services.